Location: Caltech
(34.1382°N, 118.1253°W)
Time: 01:42:10
(UTC-08:00)

Oscar 10/S400 - Visible Passes

Search period start: 19 February 2018 00:00
Search period end: 01 March 2018 00:00
Orbit: 3993 x 35453 km, 27.1° (Epoch: 16 February)

Date Brightness Start Highest point End Pass type
(mag) Time Alt. Az. Time Alt. Az. Time Alt. Az.
19 Feb ? 18:48:45 10° WSW 19:15:35 78° S 04:52:52 10° SSE visible
20 Feb ? 18:04:37 10° WSW 18:28:17 76° SSE 03:59:41 10° SSE visible
21 Feb ? 17:20:34 10° WSW 17:42:00 72° SSE 03:01:44 10° SE visible
22 Feb ? 16:36:36 10° WSW 16:56:28 67° SSE 01:54:38 10° SE visible
23 Feb ? 15:52:40 10° SW 16:11:30 60° SSE 17:24:20 10° E visible
27 Feb ? 03:13:39 10° W 05:25:08 - W 03:52:57 13° W visible
28 Feb ? 02:03:01 10° W 03:11:24 21° W 05:23:30 10° WSW visible
